When you browse on this site, cookies collect data to enhance your experience and personalize the content and advertising you see.
Visit our Privacy Policy to learn more. By continuing to use the site, you agree to this use of cookies and data.
  • En España
  • Lista de países
  • Para 7 días
  • Temperatura del agua
  • Mapa Satelital
  • El tiempo en el mapa
  • Informadores
  • user-avatar
    Iniciar sesión

    Tiempo cada hora Boreshino

    Hoy, 19 Julio, Viernes

    Tiempo Temperatura Precipitaciones Viento Presión Humedad
    00:00 +13°C° 0.4 mm 4 mps 733 mmHg 97%
    01:00 +13°C° 0.4 mm 4 mps 733 mmHg 97%
    02:00 +13°C° 0.4 mm 5 mps 733 mmHg 97%
    03:00 +13°C° 0.4 mm 5 mps 734 mmHg 97%
    04:00 +13°C° 0.4 mm 5 mps 734 mmHg 96%
    05:00 +13°C° 0.4 mm 5 mps 734 mmHg 96%
    06:00 +14°C° 0.2 mm 5 mps 735 mmHg 96%
    07:00 +14°C° 0.2 mm 5 mps 735 mmHg 95%
    08:00 +14°C° 0.2 mm 5 mps 735 mmHg 94%
    09:00 +14°C° 0.2 mm 5 mps 736 mmHg 93%
    10:00 +14°C° 0.2 mm 5 mps 736 mmHg 92%
    11:00 +15°C° 0.2 mm 5 mps 736 mmHg 91%
    12:00 +15°C° 0.1 mm 6 mps 737 mmHg 89%
    13:00 +16°C° 0.1 mm 6 mps 737 mmHg 87%
    14:00 +16°C° 0.1 mm 7 mps 737 mmHg 85%
    15:00 +17°C° 0 mm 7 mps 737 mmHg 82%
    16:00 +17°C° 0 mm 7 mps 738 mmHg 79%
    17:00 +17°C° 0 mm 7 mps 738 mmHg 76%
    18:00 +16°C° 0 mm 6 mps 738 mmHg 78%
    19:00 +15°C° 0 mm 5 mps 738 mmHg 81%
    20:00 +14°C° 0 mm 4 mps 738 mmHg 83%
    21:00 +14°C° 0 mm 4 mps 739 mmHg 82%
    22:00 +14°C° 0 mm 4 mps 739 mmHg 82%
    23:00 +14°C° 0 mm 4 mps 739 mmHg 81%

    Mañana, 20 Julio, Sábado

    Tiempo Temperatura Precipitaciones Viento Presión Humedad
    00:00 +14°C° 0 mm 4 mps 739 mmHg 84%
    01:00 +13°C° 0 mm 4 mps 740 mmHg 87%
    02:00 +12°C° 0 mm 4 mps 740 mmHg 89%
    03:00 +12°C° 0 mm 4 mps 740 mmHg 91%
    04:00 +12°C° 0 mm 4 mps 740 mmHg 92%
    05:00 +12°C° 0 mm 3 mps 740 mmHg 93%
    06:00 +13°C° 0 mm 4 mps 741 mmHg 89%
    07:00 +15°C° 0 mm 4 mps 741 mmHg 86%
    08:00 +17°C° 0 mm 4 mps 741 mmHg 82%
    09:00 +18°C° 0.1 mm 4 mps 742 mmHg 79%
    10:00 +19°C° 0.1 mm 5 mps 742 mmHg 77%
    11:00 +20°C° 0.1 mm 5 mps 742 mmHg 75%
    12:00 +21°C° 0.5 mm 5 mps 742 mmHg 75%
    13:00 +21°C° 0.5 mm 5 mps 742 mmHg 76%
    14:00 +21°C° 0.5 mm 5 mps 742 mmHg 76%
    15:00 +21°C° 0.4 mm 5 mps 742 mmHg 77%
    16:00 +21°C° 0.4 mm 4 mps 742 mmHg 78%
    17:00 +21°C° 0.4 mm 4 mps 743 mmHg 80%
    18:00 +19°C° 0 mm 3 mps 743 mmHg 82%
    19:00 +18°C° 0 mm 3 mps 743 mmHg 84%
    20:00 +17°C° 0 mm 3 mps 743 mmHg 86%
    21:00 +16°C° 0 mm 3 mps 743 mmHg 86%
    22:00 +14°C° 0 mm 3 mps 743 mmHg 86%
    23:00 +14°C° 0 mm 2 mps 743 mmHg 86%

    Pasado mañana, 21 Julio, Domingo

    Tiempo Temperatura Precipitaciones Viento Presión Humedad
    00:00 +14°C° 0 mm 2 mps 743 mmHg 87%
    01:00 +13°C° 0 mm 2 mps 744 mmHg 88%
    02:00 +13°C° 0 mm 2 mps 744 mmHg 89%
    03:00 +13°C° 0 mm 2 mps 744 mmHg 89%
    04:00 +13°C° 0 mm 2 mps 744 mmHg 89%
    05:00 +13°C° 0 mm 2 mps 744 mmHg 89%
    06:00 +15°C° 0 mm 2 mps 744 mmHg 85%
    07:00 +17°C° 0 mm 2 mps 744 mmHg 80%
    08:00 +19°C° 0 mm 2 mps 744 mmHg 75%
    09:00 +20°C° 0 mm 2 mps 744 mmHg 72%
    10:00 +21°C° 0 mm 2 mps 744 mmHg 68%
    11:00 +24°C° 0 mm 2 mps 744 mmHg 64%
    12:00 +24°C° 0 mm 3 mps 744 mmHg 63%
    13:00 +24°C° 0 mm 3 mps 744 mmHg 62%
    14:00 +25°C° 0 mm 3 mps 744 mmHg 61%
    15:00 +25°C° 0 mm 3 mps 744 mmHg 63%
    16:00 +24°C° 0 mm 3 mps 744 mmHg 66%
    17:00 +24°C° 0 mm 2 mps 744 mmHg 69%
    18:00 +23°C° 0 mm 2 mps 744 mmHg 74%
    19:00 +21°C° 0 mm 1 mps 744 mmHg 79%
    20:00 +19°C° 0 mm 1 mps 744 mmHg 85%
    21:00 +16°C° 0 mm 0 mps 744 mmHg 85%
    22:00 +16°C° 0 mm 0 mps 744 mmHg 85%
    23:00 +15°C° 0 mm 0 mps 744 mmHg 85%

    22 Julio, Lunes

    Tiempo Temperatura Precipitaciones Viento Presión Humedad
    00:00 +15°C° 0 mm 0 mps 744 mmHg 86%
    01:00 +15°C° 0 mm 1 mps 743 mmHg 87%
    02:00 +15°C° 0 mm 1 mps 743 mmHg 88%
    03:00 +15°C° 0 mm 1 mps 743 mmHg 88%
    04:00 +15°C° 0 mm 1 mps 743 mmHg 89%
    05:00 +16°C° 0 mm 1 mps 743 mmHg 89%
    06:00 +17°C° 0 mm 2 mps 743 mmHg 85%
    07:00 +19°C° 0 mm 2 mps 743 mmHg 82%
    08:00 +20°C° 0 mm 2 mps 742 mmHg 78%
    09:00 +21°C° 0.4 mm 3 mps 742 mmHg 77%
    10:00 +22°C° 0.4 mm 3 mps 742 mmHg 75%
    11:00 +24°C° 0.4 mm 3 mps 742 mmHg 74%
    12:00 +24°C° 1.2 mm 3 mps 741 mmHg 75%
    13:00 +24°C° 1.2 mm 3 mps 741 mmHg 76%
    14:00 +24°C° 1.2 mm 3 mps 741 mmHg 77%
    15:00 +22°C° 0.6 mm 3 mps 741 mmHg 81%
    16:00 +21°C° 0.6 mm 2 mps 741 mmHg 86%
    17:00 +19°C° 0.6 mm 2 mps 740 mmHg 90%
    18:00 +19°C° 0.4 mm 2 mps 740 mmHg 92%
    19:00 +18°C° 0.4 mm 2 mps 740 mmHg 94%
    20:00 +17°C° 0.4 mm 2 mps 740 mmHg 96%
    21:00 +17°C° 0.6 mm 2 mps 740 mmHg 97%
    22:00 +17°C° 0.6 mm 2 mps 740 mmHg 97%
    23:00 +17°C° 0.6 mm 2 mps 740 mmHg 98%

    23 Julio, Martes

    Tiempo Temperatura Precipitaciones Viento Presión Humedad
    00:00 +17°C° 0.9 mm 2 mps 740 mmHg 98%
    01:00 +17°C° 0.9 mm 2 mps 740 mmHg 98%
    02:00 +17°C° 0.9 mm 2 mps 740 mmHg 98%
    03:00 +16°C° 1.7 mm 3 mps 740 mmHg 98%
    04:00 +16°C° 1.7 mm 3 mps 740 mmHg 98%
    05:00 +15°C° 1.7 mm 4 mps 739 mmHg 98%
    06:00 +15°C° 1.2 mm 4 mps 740 mmHg 97%
    07:00 +14°C° 1.2 mm 4 mps 740 mmHg 97%
    08:00 +14°C° 1.2 mm 5 mps 740 mmHg 97%
    09:00 +14°C° 0.5 mm 5 mps 740 mmHg 96%
    10:00 +14°C° 0.5 mm 5 mps 740 mmHg 95%
    11:00 +15°C° 0.5 mm 5 mps 741 mmHg 94%
    12:00 +15°C° 0.1 mm 4 mps 741 mmHg 95%
    13:00 +15°C° 0.1 mm 4 mps 741 mmHg 95%
    14:00 +15°C° 0.1 mm 4 mps 741 mmHg 95%
    15:00 +17°C° 0.1 mm 4 mps 741 mmHg 94%
    16:00 +17°C° 0.1 mm 4 mps 741 mmHg 93%
    17:00 +17°C° 0.1 mm 4 mps 741 mmHg 92%
    18:00 +17°C° 0.3 mm 4 mps 742 mmHg 91%
    19:00 +17°C° 0.3 mm 4 mps 742 mmHg 90%
    20:00 +15°C° 0.3 mm 4 mps 742 mmHg 89%
    21:00 +15°C° 0.2 mm 4 mps 742 mmHg 90%
    22:00 +16°C° 0.2 mm 3 mps 741 mmHg 92%
    23:00 +14°C° 0.2 mm 3 mps 741 mmHg 93%

    24 Julio, Miércoles

    Tiempo Temperatura Precipitaciones Viento Presión Humedad
    00:00 +14°C° 0 mm 4 mps 741 mmHg 93%
    01:00 +13°C° 0 mm 4 mps 741 mmHg 93%
    02:00 +13°C° 0 mm 4 mps 741 mmHg 93%
    03:00 +13°C° 0 mm 4 mps 741 mmHg 93%
    04:00 +13°C° 0 mm 4 mps 741 mmHg 93%
    05:00 +12°C° 0 mm 4 mps 741 mmHg 93%
    06:00 +14°C° 0 mm 5 mps 741 mmHg 88%
    07:00 +15°C° 0 mm 5 mps 742 mmHg 84%
    08:00 +16°C° 0 mm 5 mps 742 mmHg 80%
    09:00 +17°C° 0 mm 5 mps 742 mmHg 74%
    10:00 +19°C° 0 mm 6 mps 742 mmHg 68%
    11:00 +20°C° 0 mm 6 mps 742 mmHg 63%
    12:00 +21°C° 0 mm 6 mps 742 mmHg 62%
    13:00 +21°C° 0 mm 6 mps 742 mmHg 62%
    14:00 +22°C° 0 mm 6 mps 742 mmHg 61%
    15:00 +21°C° 0 mm 5 mps 742 mmHg 65%
    16:00 +21°C° 0 mm 4 mps 742 mmHg 68%
    17:00 +21°C° 0 mm 3 mps 742 mmHg 72%
    18:00 +20°C° 0.1 mm 3 mps 742 mmHg 74%
    19:00 +19°C° 0.1 mm 3 mps 742 mmHg 76%
    20:00 +17°C° 0.1 mm 4 mps 741 mmHg 78%
    21:00 +15°C° 0 mm 4 mps 741 mmHg 79%
    22:00 +15°C° 0 mm 4 mps 741 mmHg 80%
    23:00 +14°C° 0 mm 4 mps 741 mmHg 81%
    Mostrar más